Williamtown, Australia

6:55 AM AEST on August 22, 2017 (GMT +1000)
Williamtown Military

Weather History for YWLM - November, 2012

Change the Weather History Date:

Saturday, November 17, 2012

  Actual Average Record
Temperature  
Mean Temperature 65 °F -  
Max Temperature 69 °F - - ()
Min Temperature 61 °F - - ()
Growing Degree Days 15 (Base 50)    
Moisture  
Dew Point 52 °F    
Average Humidity 62    
Maximum Humidity 88    
Minimum Humidity 39    
Precipitation  
Precipitation 0.00 in - - ()
Sea Level Pressure  
Sea Level Pressure 29.96 in    
Wind  
Wind Speed 11 mph ()    
Max Wind Speed 16 mph    
Max Gust Speed -    
Visibility 6.2 miles    
Events Rain    
T = Trace of Precipitation, MM = Missing Value Source: Averaged Metar Reports

Daily Weather History Graph

Daily Weather History Graph

Search for Another Location

Airport or City:

Trip Planner

Search our weather history database for the weather conditions in past years. The results will help you decide how hot, cold, wet, or windy it might be!

Date:

Astronomy

Nov. 17, 2012 Rise Set
Actual Time 5:42 AM AEDT 7:33 PM AEDT
Civil Twilight 5:14 AM AEDT 8:00 PM AEDT
Nautical Twilight 4:42 AM AEDT 8:33 PM AEDT
Astronomical Twilight 4:07 AM AEDT 9:08 PM AEDT
Moon 8:42 AM AEDT (11/17) 10:59 PM AEDT (11/17)
Length of Visible Light 14h 45m
Length of Day
13h 51m
Waxing Crescent, 14% of the Moon is Illuminated
Nov 17
Waxing Crescent
Nov 21
First Quarter
Nov 29
Full
Dec 7
Last Quarter
Dec 13
New

Hourly Weather History & Observations

Time (AEDT) Temp. Dew Point Humidity Pressure Visibility Wind Dir Wind Speed Gust Speed Precip Events Conditions
12:00 AM 62 °F 58 °F 82% 29.95 in - South 10.4 mph - -   Overcast
12:00 AM 62.6 °F 57.2 °F 82% 29.95 in 6.2 mi South 10.4 mph - N/A   Overcast
12:30 AM 62.6 °F 59.0 °F 88% 29.95 in 6.2 mi South 11.5 mph - N/A Rain Light Rain Showers
1:00 AM 62.6 °F 59.0 °F 88% 29.92 in 6.2 mi SSE 10.4 mph - N/A Rain Light Rain Showers
1:03 AM 62.6 °F 59.0 °F 88% 29.92 in 6.2 mi SSE 11.5 mph - N/A Rain Light Rain Showers
1:30 AM 62.6 °F 59.0 °F 88% 29.92 in 6.2 mi SSE 13.8 mph - N/A   Overcast
1:37 AM 62.6 °F 59.0 °F 88% 29.95 in 6.2 mi SSE 13.8 mph - N/A   Overcast
2:00 AM 62 °F 58 °F 81% 29.95 in - SSE 10.4 mph - -  
2:00 AM 62.6 °F 57.2 °F 82% 29.95 in 6.2 mi SSE 10.4 mph - N/A   Overcast
2:30 AM 62.6 °F 57.2 °F 82% 29.92 in 6.2 mi SSE 13.8 mph - N/A Rain Light Rain
3:00 AM 63 °F 56 °F 71% 29.94 in - SSE 15.0 mph - -   Overcast
3:00 AM 62.6 °F 55.4 °F 77% 29.92 in 6.2 mi SSE 15.0 mph - N/A   Overcast
3:30 AM 60.8 °F 55.4 °F 82% 29.92 in 6.2 mi SSE 16.1 mph - N/A   Overcast
4:00 AM 62.6 °F 55.4 °F 77% 29.92 in 6.2 mi SE 15.0 mph - N/A   Overcast
4:30 AM 62.6 °F 53.6 °F 72% 29.92 in 6.2 mi SSE 12.7 mph - N/A   Overcast
5:00 AM 62 °F 53 °F 64% 29.95 in - SSE 11.5 mph - -  
5:00 AM 62.6 °F 53.6 °F 72% 29.95 in 6.2 mi SSE 11.5 mph - N/A   Overcast
5:30 AM 62.6 °F 51.8 °F 68% 29.95 in 6.2 mi SSE 12.7 mph - N/A   Overcast
6:00 AM 62 °F 50 °F 55% 29.96 in - SSE 11.5 mph - -  
6:00 AM 62.6 °F 50.0 °F 63% 29.95 in 6.2 mi SSE 11.5 mph - N/A   Mostly Cloudy
6:30 AM 62.6 °F 51.8 °F 68% 29.95 in 6.2 mi SSE 10.4 mph - N/A   Overcast
7:00 AM 64.4 °F 51.8 °F 64% 29.95 in 6.2 mi SSE 12.7 mph - N/A   Overcast
7:30 AM 66.2 °F 51.8 °F 60% 29.98 in 6.2 mi SSE 12.7 mph - N/A   Mostly Cloudy
8:00 AM 65 °F 50 °F 48% 29.99 in - SE 11.5 mph - -  
8:00 AM 64.4 °F 50.0 °F 59% 29.98 in 6.2 mi SE 11.5 mph - N/A   Mostly Cloudy
8:30 AM 66.2 °F 50.0 °F 56% 30.01 in 6.2 mi SE 12.7 mph - N/A   Overcast
9:00 AM 65 °F 49 °F 47% 30.01 in - SE 13.8 mph - -   Overcast
9:00 AM 66.2 °F 50.0 °F 56% 30.01 in 6.2 mi SE 13.8 mph - N/A   Overcast
9:30 AM 64.4 °F 50.0 °F 59% 30.01 in 6.2 mi SE 13.8 mph - N/A   Overcast
10:00 AM 66.2 °F 50.0 °F 56% 30.01 in 6.2 mi SSE 15.0 mph - N/A   Overcast
10:30 AM 66.2 °F 48.2 °F 52% 30.01 in 6.2 mi SSE 15.0 mph - N/A   Overcast
11:00 AM 67 °F 49 °F 41% 30.02 in - SSE 15.0 mph - -  
11:00 AM 68.0 °F 48.2 °F 49% 30.01 in 6.2 mi SSE 15.0 mph - N/A   Overcast
11:30 AM 66.2 °F 48.2 °F 52% 30.01 in 6.2 mi SSE 16.1 mph - N/A   Overcast
12:00 PM 68 °F 49 °F 39% 30.01 in - SSE 15.0 mph - -   Overcast
12:00 PM 68.0 °F 48.2 °F 49% 30.01 in 6.2 mi SSE 15.0 mph - N/A   Overcast
12:30 PM 68.0 °F 48.2 °F 49% 30.01 in 6.2 mi SSE 15.0 mph - N/A   Overcast
1:00 PM 66.2 °F 48.2 °F 52% 30.01 in 6.2 mi SSE 13.8 mph - N/A   Overcast
1:30 PM 66.2 °F 48.2 °F 52% 29.98 in 6.2 mi SSE 13.8 mph - N/A   Overcast
2:00 PM 67 °F 49 °F 41% 29.99 in - SSE 12.7 mph - -  
2:00 PM 66.2 °F 48.2 °F 52% 29.98 in 6.2 mi SSE 12.7 mph - N/A   Overcast
2:30 PM 68.0 °F 50.0 °F 52% 29.98 in 6.2 mi SSE 13.8 mph - N/A   Overcast
3:00 PM 67 °F 50 °F 45% 29.98 in - SE 12.7 mph - -  
3:00 PM 68.0 °F 50.0 °F 52% 29.98 in 6.2 mi SE 12.7 mph - N/A   Overcast
3:30 PM 68.0 °F 50.0 °F 52% 29.95 in 6.2 mi SE 13.8 mph - N/A   Overcast
4:00 PM 69.8 °F 51.8 °F 53% 29.95 in 6.2 mi SE 15.0 mph - N/A   Overcast
4:30 PM 69.8 °F 51.8 °F 53% 29.95 in 6.2 mi SE 16.1 mph - N/A   Overcast
5:00 PM 67 °F 51 °F 47% 29.95 in - SE 15.0 mph - -  
5:00 PM 66.2 °F 51.8 °F 60% 29.95 in 6.2 mi SE 15.0 mph - N/A   Overcast
5:30 PM 66.2 °F 50.0 °F 56% 29.95 in 6.2 mi SE 12.7 mph - N/A   Overcast
6:00 PM 66 °F 52 °F 50% 29.95 in - ESE 10.4 mph - -   Overcast
6:00 PM 66.2 °F 51.8 °F 60% 29.95 in 6.2 mi ESE 10.4 mph - N/A   Overcast
6:30 PM 66.2 °F 51.8 °F 60% 29.95 in 6.2 mi ESE 11.5 mph - N/A   Overcast
7:00 PM 66.2 °F 51.8 °F 60% 29.95 in 6.2 mi ESE 9.2 mph - N/A   Overcast
7:30 PM 66.2 °F 51.8 °F 60% 29.98 in 6.2 mi ESE 8.1 mph - N/A   Overcast
8:00 PM 65 °F 52 °F 52% 29.97 in - East 8.1 mph - -  
8:00 PM 66.2 °F 51.8 °F 60% 29.95 in 6.2 mi East 8.1 mph - N/A   Overcast
8:30 PM 64.4 °F 51.8 °F 64% 29.95 in 6.2 mi ENE 9.2 mph - N/A   Overcast
9:00 PM 65 °F 53 °F 55% 29.97 in - ENE 9.2 mph - -   Overcast
9:00 PM 64.4 °F 51.8 °F 64% 29.95 in 6.2 mi ENE 9.2 mph - N/A   Overcast
9:30 PM 64.4 °F 53.6 °F 68% 29.95 in 6.2 mi ENE 8.1 mph - N/A   Overcast
10:00 PM 64.4 °F 51.8 °F 64% 29.95 in 6.2 mi ENE 6.9 mph - N/A   Overcast
10:30 PM 64.4 °F 53.6 °F 68% 29.95 in 6.2 mi East 6.9 mph - N/A   Overcast
11:00 PM 63 °F 53 °F 61% 29.97 in - ENE 6.9 mph - -  
11:00 PM 62.6 °F 53.6 °F 72% 29.95 in 6.2 mi ENE 6.9 mph - N/A   Mostly Cloudy
11:30 PM 64.4 °F 53.6 °F 68% 29.98 in 6.2 mi ENE 4.6 mph - N/A   Mostly Cloudy